Tracking 20041 objects as of 22-Nov-2019
Live streaming from Space Station
objects crossing your sky now

FLOCK 2K 37

Track FLOCK 2K 37 now!
10-day predictions
FLOCK 2K 37 is classified as:


NORAD ID: 42867
Int'l Code: 2017-042AU
Perigee: 446.2 km
Apogee: 460.6 km
Inclination: 96.9 °
Period: 93.5 minutes
Semi major axis: 6824 km
RCS: Unknown
Launch date: July 14, 2017
Source: United States (US)
Launch site: TYURATAM MISSILE AND SPACE COMPLEX (TTMTR)
aabbcc
Your satellite tracking list
Your tracking list is empty




NASA's NSSDC Master Catalog

Two Line Element Set (TLE):
1 42867U 17042AU  19325.86207863 +.00004912 +00000-0 +12506-3 0  9994
2 42867 096.9174 200.2300 0010558 024.9886 335.1870 15.39951382131994
Source of the keplerian elements: AFSPC